Wind_Speed
44 45 46 48 49 50 50 50 50 51 51 51 51 51 52 52 52 52 53 53 52 52 52 52 52 52 52 51 50 49 47 47 46 45 45 44 44 44 44 43 43 42 42
44 44 45 46 48 49 50 50 50 50 51 51 50 50 51 51 51 51 51 52 52 52 52 52 52 52 52 52 51 50 49 48 48 47 46 45 44 44 44 44 43 42 43
43 44 44 45 47 48 49 49 50 50 51 51 50 49 50 51 51 51 51 52 52 52 53 53 53 53 53 53 52 51 51 50 49 48 47 46 45 44 44 44 43 43 43
43 43 43 43 45 46 47 48 49 50 50 50 50 50 50 50 51 51 51 51 51 52 52 52 53 53 52 52 52 52 51 51 51 50 48 47 46 46 45 45 45 45 45
42 42 42 42 42 43 45 46 47 48 49 49 49 50 49 49 50 50 50 50 50 50 50 51 51 52 52 52 52 52 51 51 51 50 50 49 47 47 47 46 46 46 46
40 41 41 41 41 41 42 44 46 47 48 48 48 49 49 48 48 48 50 51 50 49 49 50 50 51 51 51 52 52 52 51 51 51 50 49 48 48 48 48 48 47 47
38 38 39 39 39 40 40 41 43 45 47 48 48 48 48 48 48 48 49 50 49 49 49 49 50 50 51 51 51 51 51 51 51 51 51 50 49 49 49 49 49 48 48
37 37 37 37 38 39 39 39 40 42 44 46 47 47 48 48 48 48 49 50 49 49 48 48 49 49 50 51 51 50 50 50 50 50 50 50 50 50 49 50 50 49 49
36 36 36 36 37 37 38 38 38 40 42 43 45 46 47 47 47 48 48 49 49 48 48 48 48 48 49 50 50 50 49 49 48 49 49 49 49 49 49 50 50 50 49
35 35 35 35 36 36 36 36 37 38 39 41 42 44 45 46 46 47 47 47 48 48 47 47 48 48 48 49 48 48 49 49 48 48 49 48 48 49 49 49 49 50 50
33 33 34 34 34 35 34 35 35 36 37 39 40 41 43 44 45 46 47 47 48 48 47 47 46 46 47 48 48 47 47 47 47 48 48 48 47 48 48 48 48 49 49
32 32 32 32 32 33 33 33 33 34 35 37 38 39 41 42 43 44 45 46 47 48 47 47 47 47 47 47 48 48 48 48 48 48 48 48 48 48 48 47 47 48 49
30 30 30 30 30 30 31 31 32 33 34 36 37 38 39 40 41 42 43 44 44 45 46 47 47 47 47 47 47 47 48 48 49 48 48 48 48 48 48 48 47 47 48
29 29 29 29 29 29 29 30 31 32 33 34 35 37 38 39 40 40 41 41 42 43 44 44 45 46 46 46 46 47 48 48 48 48 47 48 48 47 47 47 47 47 47
29 29 28 28 27 28 28 28 29 29 30 31 33 35 36 37 39 39 40 40 40 41 42 43 44 44 45 46 46 46 46 46 47 47 47 47 46 46 46 46 46 46 46
29 28 27 27 27 27 28 28 28 28 29 30 31 32 34 35 36 37 38 39 39 39 41 42 43 43 44 45 45 45 45 46 46 46 45 45 45 45 45 44 44 44 45
27 26 26 26 26 26 27 28 28 29 29 29 30 30 31 32 33 34 36 36 36 37 39 40 41 41 42 42 43 44 44 44 44 43 42 42 42 43 43 43 42 42 43
25 25 25 24 24 24 25 26 27 28 28 29 29 29 29 30 31 32 33 34 34 35 37 38 40 40 40 40 41 41 41 42 42 42 41 40 41 41 41 41 42 41 41
24 24 24 24 24 24 24 25 26 27 27 27 28 28 28 28 29 30 31 32 32 34 35 35 36 38 39 39 39 40 40 40 40 40 40 39 40 40 40 40 40 40 40
24 24 23 23 23 23 24 24 25 26 26 27 27 28 28 29 29 30 31 31 32 33 33 34 34 34 35 36 37 37 37 38 38 38 38 38 38 39 39 39 39 39 39
23 23 23 23 23 23 23 24 24 25 25 26 26 27 28 28 29 29 30 31 31 31 32 33 33 33 34 34 35 35 35 35 36 36 36 36 37 37 38 38 38 38 38
22 22 22 21 21 22 23 23 24 25 25 26 26 26 27 27 28 28 29 30 30 31 31 31 32 32 33 33 33 34 34 35 35 35 35 36 36 36 36 36 36 36 36
22 22 22 22 22 22 22 23 23 24 25 26 26 26 26 26 26 27 27 28 29 30 30 31 31 31 31 32 32 33 33 34 34 34 34 35 35 35 34 35 34 34 35
22 22 22 22 22 22 23 23 24 24 25 25 26 26 26 26 26 26 26 27 28 29 30 30 31 30 30 30 31 31 32 33 33 33 34 33 33 33 33 33 33 34 34
21 21 22 22 22 22 23 23 23 24 25 25 25 25 25 25 25 25 25 26 27 28 29 29 29 30 30 30 30 31 31 32 32 32 33 33 32 32 32 33 33 34 34
21 21 21 22 22 22 22 22 22 23 23 23 23 23 24 24 24 25 25 26 26 27 28 28 28 29 29 30 30 30 30 30 31 31 31 31 31 32 32 32 32 32 32
Wind_Direction
270 268 266 263 260 257 255 254 254 253 252 251 250 248 247 247 247 247 246 245 245 245 245 245 245 246 246 247 248 250 250 251 252 253 254 255 257 258 259 259 260 261 262
271 269 267 263 260 258 256 254 253 252 251 251 250 248 247 247 247 246 246 244 243 244 244 244 244 246 246 248 249 249 250 251 252 253 254 254 255 257 259 259 260 261 262
270 270 268 264 261 259 257 254 253 252 251 250 249 249 248 247 247 246 245 243 243 243 244 244 244 245 247 248 249 249 250 251 252 253 253 253 255 257 258 259 260 261 263
271 269 267 264 262 260 257 255 254 251 249 248 248 247 247 247 246 245 245 244 244 244 244 245 246 245 247 247 248 249 249 251 251 252 252 253 254 256 258 259 260 261 263
271 269 267 265 263 261 258 256 253 250 248 246 246 246 246 246 245 245 244 244 244 244 244 245 246 245 246 247 247 248 249 250 251 251 252 253 254 256 258 259 260 261 263
272 270 267 265 262 261 259 256 253 249 247 246 245 245 245 245 245 244 243 243 244 244 245 245 245 245 246 246 247 247 249 250 251 251 251 253 255 256 258 259 260 261 262
274 272 269 265 262 261 260 258 254 250 248 246 244 243 244 244 244 244 243 243 243 244 245 245 245 245 246 247 247 247 248 249 250 250 251 252 254 256 257 258 260 261 262
274 272 269 266 263 262 261 259 255 250 248 246 245 244 244 244 244 244 244 243 243 244 245 245 245 246 246 247 246 247 249 250 250 251 252 253 254 256 258 259 260 261 261
274 272 269 267 264 262 261 260 256 252 249 247 245 244 244 244 244 244 244 244 243 244 244 245 245 247 247 247 246 247 248 248 249 251 252 253 254 256 258 259 260 260 260
275 272 269 267 265 263 262 259 256 253 249 247 245 245 244 243 244 244 243 244 244 245 244 245 246 247 246 246 246 246 247 247 249 251 253 254 256 257 258 259 259 260 260
276 274 272 269 266 264 262 259 256 253 250 247 245 245 244 244 245 245 245 245 244 244 245 245 247 248 246 245 245 246 247 247 249 251 253 254 256 257 259 259 259 259 259
277 275 273 270 267 265 262 258 254 252 251 249 247 247 246 246 246 246 246 245 245 245 245 245 245 245 245 245 245 246 247 248 250 251 253 254 255 257 258 259 259 259 259
278 276 274 272 269 265 262 258 255 253 252 250 248 248 247 247 246 246 245 245 245 244 244 244 243 243 244 245 246 246 247 249 251 253 254 254 256 257 258 259 259 260 260
280 277 274 271 268 265 262 259 256 254 252 251 249 248 248 247 247 247 245 245 244 244 242 243 242 242 243 245 246 248 249 251 252 252 254 254 255 256 258 259 259 260 260
280 278 274 270 267 264 262 259 255 252 252 251 249 248 247 246 247 247 245 244 244 244 243 242 242 242 243 245 246 248 248 250 251 252 254 254 255 255 256 257 259 259 260
279 276 272 269 266 263 259 257 255 252 251 250 248 247 246 246 246 245 245 245 244 243 243 242 243 244 244 244 245 246 247 248 250 251 253 254 254 255 256 257 258 259 260
278 275 271 268 266 263 258 256 255 253 252 251 249 248 247 247 246 245 245 245 245 244 243 243 243 245 245 244 245 246 248 248 249 250 252 253 254 255 255 257 258 259 260
278 275 271 268 265 261 259 257 254 252 251 250 249 249 249 248 247 246 244 244 245 245 245 244 244 245 244 244 246 247 248 248 249 250 251 252 254 255 255 257 258 260 261
278 275 272 269 266 262 259 258 255 252 251 250 248 247 248 248 247 247 245 245 245 245 245 245 245 245 244 245 246 247 248 249 249 250 251 252 253 254 255 257 259 260 262
279 276 272 269 266 263 261 258 255 253 251 251 249 248 248 247 248 247 247 247 246 245 244 244 245 245 244 244 246 246 247 247 248 249 250 252 253 254 255 257 258 260 263
279 276 272 269 266 264 261 259 257 254 252 251 251 251 250 249 248 247 247 246 246 245 244 243 245 245 244 244 244 244 245 246 247 248 249 251 253 255 256 257 259 260 262
280 275 273 270 266 263 262 260 259 256 254 252 251 251 250 250 249 249 248 247 246 244 243 243 243 245 245 245 244 244 245 246 247 248 250 251 253 255 256 257 258 260 262
281 277 274 270 266 264 262 261 259 257 256 254 253 251 251 250 249 249 248 246 244 242 242 242 243 244 244 244 244 245 245 245 246 248 250 252 254 255 256 257 259 260 261
282 278 275 271 267 264 262 260 259 259 257 255 253 252 251 250 249 248 246 245 242 241 240 241 242 243 243 244 245 246 246 247 248 249 250 252 254 255 257 257 258 260 261
283 279 276 273 270 265 262 260 259 258 257 255 253 251 249 248 247 245 244 243 241 239 238 239 241 242 243 245 246 246 247 247 248 249 251 253 254 255 257 258 259 260 262
284 280 276 273 270 267 264 262 261 259 256 254 253 250 247 246 245 244 244 243 240 239 239 240 242 243 244 245 246 246 246 247 249 250 252 253 254 256 257 258 259 259 261
Height
5584 5583 5582 5582 5583 5584 5586 5588 5590 5593 5595 5598 5601 5604 5608 5611 5615 5619 5623 5628 5633 5637 5642 5646 5651 5655 5659 5663 5666 5669 5672 5676 5679 5681 5684 5685 5687 5689 5690 5692 5693 5694 5695
5570 5569 5568 5568 5568 5569 5571 5573 5575 5578 5581 5584 5587 5590 5593 5597 5601 5605 5609 5614 5619 5624 5628 5632 5637 5641 5645 5649 5653 5657 5660 5663 5666 5669 5671 5673 5675 5677 5679 5680 5682 5683 5684
5556 5555 5554 5553 5553 5554 5556 5558 5560 5563 5566 5569 5572 5576 5579 5583 5587 5591 5595 5600 5605 5610 5614 5619 5623 5627 5632 5636 5640 5643 5647 5650 5653 5656 5659 5661 5663 5665 5667 5669 5670 5671 5672
5542 5540 5540 5539 5539 5540 5541 5543 5545 5548 5551 5554 5558 5562 5565 5569 5573 5578 5582 5587 5591 5596 5600 5605 5609 5614 5618 5622 5626 5629 5633 5637 5640 5643 5646 5649 5651 5653 5655 5657 5658 5659 5660
5528 5527 5526 5526 5526 5526 5527 5528 5530 5533 5537 5540 5544 5548 5552 5556 5561 5565 5569 5574 5578 5582 5587 5591 5596 5600 5604 5608 5612 5616 5619 5623 5626 5630 5633 5636 5638 5640 5643 5644 5645 5646 5647
5515 5514 5513 5513 5513 5513 5514 5515 5516 5519 5523 5526 5531 5535 5539 5544 5548 5552 5557 5561 5565 5569 5574 5578 5582 5587 5590 5594 5598 5602 5606 5609 5613 5616 5619 5622 5625 5627 5629 5630 5632 5634 5635
5502 5501 5501 5501 5501 5501 5501 5502 5503 5506 5509 5513 5517 5522 5526 5531 5535 5540 5544 5548 5552 5557 5561 5565 5569 5573 5577 5580 5584 5588 5592 5595 5599 5603 5606 5609 5611 5614 5616 5618 5619 5620 5622
5490 5489 5489 5489 5489 5489 5489 5490 5491 5493 5496 5500 5505 5509 5514 5518 5523 5527 5531 5535 5540 5544 5549 5552 5556 5560 5564 5567 5571 5575 5579 5582 5586 5589 5593 5596 5597 5599 5601 5603 5604 5606 5608
5479 5478 5477 5477 5477 5477 5478 5478 5479 5481 5484 5488 5492 5496 5501 5506 5510 5514 5518 5523 5527 5532 5536 5540 5543 5547 5551 5554 5558 5562 5566 5569 5572 5575 5578 5581 5583 5585 5587 5589 5590 5592 5594
5468 5467 5466 5465 5465 5466 5466 5467 5468 5470 5473 5476 5480 5484 5488 5493 5497 5501 5506 5510 5515 5519 5523 5527 5531 5534 5538 5541 5545 5549 5553 5556 5559 5562 5565 5567 5569 5571 5573 5575 5576 5577 5579
5457 5456 5455 5454 5454 5455 5455 5456 5458 5460 5462 5465 5469 5473 5476 5481 5485 5489 5493 5497 5502 5506 5510 5514 5518 5521 5524 5528 5532 5536 5540 5543 5546 5549 5551 5554 5556 5558 5559 5561 5562 5563 5565
5447 5446 5445 5444 5444 5444 5445 5446 5448 5450 5452 5455 5458 5462 5465 5469 5473 5476 5480 5484 5488 5493 5497 5501 5505 5508 5512 5516 5520 5523 5527 5530 5533 5536 5538 5541 5543 5545 5546 5547 5548 5549 5551
5438 5436 5436 5435 5435 5435 5436 5437 5438 5440 5442 5445 5448 5451 5454 5458 5461 5465 5468 5472 5476 5480 5484 5488 5492 5496 5500 5503 5507 5510 5513 5516 5519 5522 5525 5527 5530 5531 5532 5534 5534 5535 5537
5429 5427 5426 5426 5426 5426 5427 5428 5429 5431 5433 5435 5438 5441 5444 5447 5450 5454 5457 5460 5464 5468 5472 5476 5480 5483 5487 5491 5494 5497 5500 5503 5506 5509 5511 5514 5515 5517 5519 5520 5521 5522 5524
5420 5419 5418 5417 5417 5417 5418 5419 5420 5422 5423 5426 5428 5430 5433 5436 5439 5442 5446 5449 5453 5456 5460 5463 5467 5471 5475 5478 5481 5484 5487 5490 5493 5495 5498 5500 5502 5504 5505 5507 5508 5509 5510
5411 5410 5409 5408 5408 5409 5409 5410 5411 5413 5415 5416 5418 5420 5423 5426 5429 5432 5435 5438 5442 5445 5448 5452 5456 5459 5463 5466 5469 5472 5475 5477 5480 5482 5484 5487 5489 5491 5492 5494 5495 5496 5497
5402 5401 5400 5400 5400 5400 5401 5402 5403 5405 5406 5407 5409 5411 5414 5416 5419 5422 5424 5428 5431 5434 5437 5441 5444 5448 5451 5454 5457 5460 5463 5465 5468 5470 5472 5474 5476 5478 5480 5481 5483 5484 5485
5394 5392 5392 5391 5392 5392 5392 5393 5395 5396 5398 5399 5401 5403 5404 5407 5409 5412 5415 5417 5420 5423 5426 5430 5433 5436 5439 5442 5445 5448 5450 5453 5455 5458 5460 5463 5465 5466 5468 5470 5471 5472 5473
5386 5384 5384 5383 5383 5384 5384 5385 5386 5387 5389 5391 5392 5394 5396 5398 5400 5402 5405 5408 5411 5413 5416 5419 5422 5425 5428 5431 5433 5436 5439 5442 5444 5447 5449 5451 5453 5455 5457 5458 5459 5460 5461
5378 5377 5376 5375 5375 5376 5376 5377 5378 5379 5381 5382 5384 5385 5387 5389 5391 5393 5396 5399 5401 5404 5406 5409 5412 5415 5417 5420 5423 5425 5428 5431 5433 5436 5438 5440 5442 5444 5445 5447 5448 5449 5449
5370 5369 5368 5368 5368 5368 5368 5369 5370 5371 5372 5374 5375 5377 5378 5380 5383 5385 5387 5389 5392 5394 5397 5400 5402 5405 5407 5410 5413 5415 5418 5421 5423 5425 5427 5429 5431 5433 5434 5435 5436 5437 5438
5363 5361 5361 5360 5360 5360 5360 5361 5362 5363 5364 5366 5367 5369 5370 5372 5374 5376 5378 5380 5383 5385 5388 5391 5393 5396 5398 5401 5403 5406 5408 5411 5413 5415 5417 5419 5421 5422 5423 5424 5426 5426 5427
5355 5354 5353 5353 5353 5353 5353 5353 5354 5355 5356 5357 5359 5360 5362 5363 5365 5367 5369 5371 5374 5376 5379 5381 5384 5387 5389 5391 5394 5396 5398 5401 5403 5405 5407 5409 5410 5412 5413 5414 5415 5416 5416
5348 5347 5346 5345 5345 5345 5345 5346 5346 5347 5348 5349 5351 5352 5354 5355 5357 5359 5360 5362 5365 5367 5369 5372 5375 5377 5380 5382 5385 5387 5389 5391 5393 5395 5397 5398 5400 5401 5402 5403 5404 5405 5406
5341 5340 5339 5338 5337 5337 5337 5338 5338 5339 5340 5341 5342 5344 5345 5347 5349 5350 5352 5354 5356 5358 5361 5363 5366 5369 5371 5373 5375 5377 5379 5381 5383 5385 5387 5389 5390 5391 5392 5393 5394 5394 5395
5333 5332 5331 5330 5330 5330 5330 5330 5331 5331 5332 5333 5334 5336 5337 5339 5341 5342 5344 5346 5348 5350 5353 5355 5357 5360 5362 5364 5366 5368 5370 5372 5373 5375 5377 5378 5380 5381 5382 5382 5383 5384 5384